Rbgn^[z[y[W
メイン
   新天体発見情報
     Comet C/2025 A4 (PANSTARRS)
投稿するにはまず登録を

スレッド表示 | 新しいものから 前のトピック | 次のトピック | 下へ
投稿者 スレッド
佐藤裕久
投稿日時: 2025-1-28 23:09
モデレータ
登録日: 2005-6-12
居住地: 日本
投稿: 2674
オンライン
Comet C/2025 A4 (PANSTARRS)

R. Weryk (西オンタリオ大学,物理および天文学科)の通報によると、1月3日、Haleakalaにある
Pan-STARRS2 1.8-m Ritchey-Chretien反射望遠鏡で得た画像から彗星を発見した。
WerykとR. Wainscoatは、1月4.64日UT、Maunaeaにある3.6-m Canada-France-Hawaii望遠鏡で得た
3枚の40-秒のgri-バンドフォローアップ画像では、0".9のシーイングで、1".5 (半値全幅:FWHM)の
集光した頭部が見え、p.a. p.a. 250-320°にわたって2"ほどの広い尾がある。
Werykは、J. Fairlambが1月6.6日にハワイ大学 2.2-m望遠鏡により、0".9シーイングで得た2枚の
45-秒画像の2枚のフォローアップ画像から、2".0(FWHM)の非常に集光した頭部が見えるが、明らか
な尾はないが、彗星の像は部分的に恒星と重なっていると付け加えた。
小惑星センターのPCCP webpageに公表後、L. Buzzi (Varese, イタリア)によると、1月8.15-
8.20日UT、Schiaparelli天文台の0.84-m f/3.5 反射望遠鏡で得た60-秒CMOS画像145枚のスタック
から、この彗星は近傍の恒星に対してソフトで集光した3"のコマが見え、p.a. 約300゜に3"-4" の
尾の気配がある。

彗星機能の報告は次のとおり、

OC   Date        Reporter            Coma    Tail   PA   Comet     Date
                                                        (T/P)   Reported
T14  2025-01-04  R. Weryk            0".6      2"  250    T   2025-01-04.72
T12  2025-01-06  R. Weryk            1".1                 T   2025-01-07.03
204  2025-01-08  A. Aletti           3"        4"  300    P   2025-01-15.85

発見位置は次のとおり(PCCP P2255WF)、

     2025 UT             R.A. (2000) Decl.       Mag.
     Jan.  3.62917   13 33 37.48   +25 58 18.9   21.0
           3.64455   13 33 38.24   +25 58 20.4   21.6
           3.65227   13 33 38.56   +25 58 21.5   20.9

MPCの楕円軌道要素、位置推算表は次のとおり、

Orbital elements:
    C/2025 A4 (PANSTARRS)                                                       
Epoch 2024 Oct. 17.0 TT = JDT 2460600.5                                         
T 2025 Jan. 14.06524 TT                                 Veres                   
q   3.8224333            (2000.0)            P               Q                  
n   0.02719473     Peri.  102.98698     -0.85296552     -0.15657539             
a  10.9516505      Node    69.86355     -0.13822423     -0.85213494             
e   0.6509719      Incl.   32.02890     +0.50333278     -0.49934977             
P  36.2                                                                         
From 32 observations 2024 Dec. 21-2025 Jan. 16, mean residual 0".3.             
                                                                                
Ephemeris:
Date    TT    R. A. (2000) Decl.     Delta      r    Elong.  Phase   m1
2024 12 19    13 19 33.2 +25 50 22   3.8472  3.8269    81.5    14.7  21.2
...
2025 01 03    13 33 06.9 +25 57 29   3.6647  3.8232    91.8    14.9  21.0
...
2025 01 11    13 39 09.2 +26 11 22   3.5694  3.8225    97.4    14.8  21.0
...
2025 01 17    13 43 03.7 +26 26 07   3.4999  3.8225   101.7    14.6  20.9
2025 01 18    13 43 39.5 +26 28 55   3.4885  3.8225   102.4    14.6  20.9
2025 01 19    13 44 14.3 +26 31 48   3.4772  3.8226   103.1    14.5  20.9
...
2025 01 25    13 47 22.1 +26 51 04   3.4109  3.8232   107.4    14.2  20.9
...
2025 02 02    13 50 33.0 +27 21 13   3.3274  3.8248   113.2    13.7  20.8
...
2025 02 17    13 53 13.8 +28 26 27   3.1912  3.8300   123.8    12.4  20.8

(MPEC 2025-B11、CBET 5496)

スレッド表示 | 新しいものから 前のトピック | 次のトピック | トップ

投稿するにはまず登録を
 
© 1999 Tsutomu Seki.